Location: Aliso Viejo
(33.5650°N, 117.7271°W)
Time: 01:28:23
(UTC+00:00)

Daily predictions for brighter satellites

Satellite Brightness Start Highest point End
(mag) Time Altitude Azimuth Time Altitude Azimuth Time Altitude Azimuth
Cosmos 1633 2.8 01:06:42 10° N 01:10:13 46° E 01:13:42 10° SSE
ISS -1.9 01:08:46 10° S 01:11:01 17° SE 01:13:18 10° E
Cosmos 1464 Rocket 4.1 01:08:43 10° N 01:14:44 55° E 01:20:42 10° SSE
Cosmos 158 Rocket 4.2 01:10:17 10° S 01:15:27 54° ESE 01:20:31 10° NNE
SKYMED 2 4.5 01:14:11 10° NE 01:17:58 29° E 01:21:43 10° SSE
COBE Rocket 3.8 01:13:20 10° NNE 01:18:01 67° E 01:22:36 10° S
Cosmos 1862 3.5 01:14:31 10° N 01:18:23 47° E 01:22:14 10° SSE
Cosmos 1805 Rocket 4.1 01:15:45 10° NNW 01:20:04 64° W 01:24:25 10° S
Cosmos 1072 Rocket 4.5 01:20:19 10° N 01:26:30 78° E 01:32:44 10° S
GPS 2-04 Rocket1 2.4 01:25:37 10° W 01:29:06 65° N 01:31:54 14° ENE
CORIOLIS 4.1 01:27:45 10° SSE 01:33:08 79° ENE 01:38:35 10° N
Okean-O 2.6 01:31:02 10° SSE 01:35:23 58° ENE 01:39:45 10° N
Geosat 4.0 01:30:32 10° NNE 01:35:35 79° ESE 01:40:36 10° SSW
Cosmos 1371 Rocket 4.4 01:30:48 10° N 01:35:39 40° ENE 01:40:29 10° SE
Cosmos 1151 Rocket 3.0 01:34:25 10° S 01:38:46 86° E 01:43:10 10° N
H-2A R/B 3.0 01:35:30 10° S 01:39:19 72° W 01:43:07 10° NNW
Delta 168 4.4 01:38:57 10° SW 01:41:15 19° S 01:43:39 10° SE
CZ-3C R/B 4.3 01:39:42 10° SW 01:41:58 12° SSW 01:43:58 10° S
Cosmos 724 4.3 01:36:52 10° NNW 01:42:37 59° ENE 01:48:17 10° SE
NOAA 12 4.0 01:38:59 10° SSE 01:44:17 74° ENE 01:49:37 10° N
Cosmos 2360 Rocket 3.9 01:42:11 10° ESE 01:43:54 12° ESE 01:43:54 12° ESE
Cosmos 1633 Rocket 3.1 01:41:05 10° N 01:45:31 83° W 01:49:56 10° S
YAOGAN 6 3.1 01:43:33 10° SE 01:46:42 33° ENE 01:49:52 10° N
Cosmos 1980 Rocket 2.9 01:44:04 10° SW 01:49:34 55° WNW 01:55:10 10° N
SL-16 R/B 2.6 01:45:20 10° S 01:50:33 40° ESE 01:54:49 15° NE
Cosmos 1400 Rocket 3.7 01:47:10 10° SSE 01:50:44 29° E 01:52:36 20° NE
Cosmos 1328 Rocket 4.2 01:48:22 10° SSW 01:52:43 58° W 01:57:03 10° N
Aurora 2 Rocket 4.2 01:50:33 10° SSW 01:52:58 17° SSE 01:55:17 12° SE
Hubble Space Telescope 2.1 01:49:22 10° SW 01:52:59 30° SSE 01:55:23 17° ESE
Cosmos 2228 Rocket 3.2 01:50:37 10° SSE 01:54:55 51° E 01:59:17 10° NNE
Cosmos 2322 Rocket 2.7 01:51:43 10° S 01:56:49 38° ESE 02:00:08 20° NE
GEOS 3 Rocket 4.3 01:51:51 10° NNE 01:56:57 53° NW 02:02:04 10° SW
Cosmos 1515 Rocket 3.5 01:54:21 10° S 01:58:44 85° W 02:03:07 10° N
ATLAS 2AS CENTAUR R/B 4.1 01:54:57 10° SSE 02:00:34 22° ESE 02:02:12 21° E
DELTA 2 R/B (1) 3.6 01:55:17 10° WSW 02:00:53 76° NNW 02:04:13 25° ENE
PSLV R/B 3.7 01:59:22 10° WNW 02:01:45 39° SSW 02:02:48 24° SSE
Cosmos 1933 Rocket 3.6 01:58:45 10° N 02:03:01 55° E 02:07:18 10° SSE
COSMO-SKYMED 1 2.8 02:01:40 10° N 02:06:00 72° WNW 02:10:18 10° SSW
NOSS 2-2 (E) 3.9 02:07:42 10° S 02:10:48 33° ESE 02:10:48 33° ESE
BREEZE-M DEB (TANK) 4.1 02:06:48 10° W 02:11:31 24° NNW 02:13:11 17° N
USA 116 4.3 02:07:32 10° NNE 02:12:36 82° ESE 02:17:55 10° S
Cosmos 2034 Rocket 4.5 02:08:58 10° NNW 02:15:16 64° W 02:21:32 10° S
Cosmos 2263 Rocket 2.6 02:12:30 10° N 02:17:37 37° ENE 02:18:18 35° E
SeaSat 1 2.4 02:14:26 10° SE 02:19:17 62° ENE 02:24:09 10° NNW
NOSS 8 (E) 4.5 02:15:41 10° SSW 02:19:12 57° SE 02:19:12 57° SE
YAOGAN 1 2.4 02:18:30 10° SSE 02:22:47 68° ENE 02:27:05 10° N
Cosmos 1624 Rocket 4.2 02:20:23 10° NNW 02:25:43 76° WSW 02:31:00 10° S
Cosmos 2056 Rocket 3.6 02:21:52 10° NNW 02:27:02 76° WSW 02:32:14 10° S
Cosmos 1634 Rocket 3.8 02:25:09 10° N 02:31:19 70° E 02:37:26 10° SSE
CZ-4 R/B 1.9 02:30:32 10° S 02:34:38 61° W 02:38:40 10° NNW
Meteor 1-14 Rocket 4.4 02:29:44 10° N 02:35:34 52° E 02:41:19 10° SSE
Cosmos 1606 4.3 02:34:16 10° SSW 02:37:43 34° W 02:41:10 10° NNW
ATLAS 5 CENTAUR R/B 3.7 02:33:41 10° SW 02:38:00 28° SSE 02:43:16 20° ESE
Cosmos 2142 Rocket 4.4 02:35:39 10° N 02:41:59 65° E 02:48:14 10° SSE
ATLAS 5 CENTAUR R/B 3.0 02:43:29 10° SSW 02:46:06 31° SSW 02:46:06 31° SSW
ISS -1.9 02:44:28 10° WSW 02:46:47 30° WNW 02:46:47 30° WNW
Cosmos 2279 Rocket 4.3 02:41:51 10° N 02:53:03 15° SSE 02:54:04 10° SSE
COSMOS 2455 2.7 02:43:08 10° SSW 02:49:08 89° WNW 02:50:54 49° NNE
NOAA 11 4.3 02:59:20 10° S 03:04:43 71° WSW 03:10:09 10° NNW
Cosmos 1420 Rocket 4.4 03:01:39 10° NNW 03:05:52 57° NW 03:05:52 57° NW
Cosmos 2360 Rocket 3.1 03:22:04 10° SSW 03:25:45 42° SW 03:25:45 42° SW
Hubble Space Telescope 3.7 03:29:58 10° WSW 03:30:43 15° WSW 03:30:43 15° WSW
SL-16 R/B 4.2 03:30:13 10° WSW 03:34:44 24° WNW 03:36:45 20° NNW
Cosmos 2322 Rocket 4.1 03:36:24 10° WSW 03:40:54 25° WNW 03:42:01 23° NW
ATLAS 2AS CENTAUR R/B 3.3 03:43:02 10° SW 03:49:42 63° WSW 03:49:42 63° WSW
Cosmos 2263 Rocket 4.3 03:56:54 10° NW 04:00:09 22° W 04:00:09 22° W
CZ-3B R/B 4.4 10:36:54 21° ESE 10:36:54 21° ESE 10:39:05 10° ESE
ATLAS 2AS CENTAUR R/B 4.4 11:25:48 22° NNE 11:28:35 27° NE 11:34:23 10° ESE
COSMOS 2455 3.8 11:52:35 37° NNE 11:54:04 43° ENE 11:59:45 10° SE
